This is the latest recevied weather packets stored in our database for station/object KI4HRG. If no packets are shown the sender has not sent any weather packets the latest 10 day(s).
| Time | Temp. | Humidity | Pressure | Rain* | Wind** | Luminosity | Snow |
|---|---|---|---|---|---|---|---|
| 1777934814 | 25° C | 41% | 1013.1 hPa | 0 mm | - | 42 W/m² | - |
| 1777934510 | 25.56° C | 40% | 1013.2 hPa | 0 mm | - | 44 W/m² | - |
| 1777934208 | 25.56° C | 40% | 1013.1 hPa | 0 mm | - | 207 W/m² | - |
| 1777933903 | 26.11° C | 39% | 1013.2 hPa | 0 mm | - | 228 W/m² | - |
| 1777933600 | 26.11° C | 41% | 1013.1 hPa | 0 mm | - | 241 W/m² | - |
| 1777933297 | 26.11° C | 38% | 1013.3 hPa | 0 mm | - | 264 W/m² | - |
| 1777932994 | 25.56° C | 40% | 1013.3 hPa | 0 mm | - | 275 W/m² | - |
| 1777932691 | 26.11° C | 39% | 1013.3 hPa | 0 mm | - | 280 W/m² | - |
| 1777932387 | 26.67° C | 39% | 1013.3 hPa | 0 mm | - | 304 W/m² | - |
| 1777932086 | 26.67° C | 39% | 1013.5 hPa | 0 mm | - | 320 W/m² | - |
| 1777931781 | 26.67° C | 37% | 1013.3 hPa | 0 mm | - | 328 W/m² | - |
| 1777931479 | 26.67° C | 40% | 1013.4 hPa | 0 mm | - | 337 W/m² | - |
| 1777931175 | 26.67° C | 41% | 1013.4 hPa | 0 mm | - | 356 W/m² | - |
| 1777930871 | 26.67° C | 38% | 1013.6 hPa | 0 mm | - | 365 W/m² | - |
| 1777930568 | 26.67° C | 39% | 1013.4 hPa | 0 mm | - | 381 W/m² | - |
| 1777930265 | 26.67° C | 37% | 1013.5 hPa | 0 mm | - | 398 W/m² | - |
| 1777929960 | 26.11° C | 39% | 1013.6 hPa | 0 mm | - | 391 W/m² | - |
| 1777929658 | 26.11° C | 39% | 1013.3 hPa | 0 mm | - | 402 W/m² | - |
| 1777929355 | 26.11° C | 39% | 1013.7 hPa | 0 mm | - | 442 W/m² | - |
| 1777929051 | 25.56° C | 41% | 1013.6 hPa | 0 mm | - | 446 W/m² | - |
| 1777928749 | 26.11° C | 41% | 1013.6 hPa | 0 mm | - | 464 W/m² | - |
| 1777928445 | 26.11° C | 41% | 1013.5 hPa | 0 mm | - | 473 W/m² | - |
| 1777928143 | 26.11° C | 40% | 1013.6 hPa | 0 mm | - | 457 W/m² | - |
| 1777927841 | 26.11° C | 41% | 1013.7 hPa | 0 mm | - | 374 W/m² | - |
| 1777927539 | 25.56° C | 43% | 1013.6 hPa | 0 mm | - | 314 W/m² | - |
* Rain latest hour (hover to see other rain measurements)
** Current wind speed in m/s (hover to see current wind gust speed)